TimeCST,TemperatureF,Dew PointF,Humidity,Sea Level PressureIn,VisibilityMPH,Wind Direction,Wind SpeedMPH,Gust SpeedMPH,PrecipitationIn,Events,Conditions,WindDirDegrees,DateUTC
12:15 AM,55.4,53.6,94,30.26,10.0,ENE,6.9,-,N/A,Rain,Light Rain,70,2013-01-10 06:15:00
12:35 AM,55.4,53.6,94,30.25,10.0,ENE,10.4,-,N/A,,Light Drizzle,60,2013-01-10 06:35:00
12:55 AM,55.4,53.6,94,30.25,10.0,East,6.9,-,N/A,,Overcast,80,2013-01-10 06:55:00
2:15 AM,57.2,55.4,94,30.23,5.0,East,10.4,-,0.02,Rain,Light Rain,100,2013-01-10 08:15:00
2:35 AM,57.2,55.4,94,30.22,7.0,East,10.4,-,0.04,Rain,Light Rain,100,2013-01-10 08:35:00
2:55 AM,57.2,55.4,94,30.21,7.0,East,9.2,-,0.06,Rain,Light Rain,100,2013-01-10 08:55:00
3:15 AM,59.0,55.4,88,30.20,7.0,ESE,15.0,-,0.02,Rain,Rain,110,2013-01-10 09:15:00
3:35 AM,59.0,55.4,88,30.18,7.0,ESE,10.4,-,0.04,Rain,Light Rain,120,2013-01-10 09:35:00
3:55 AM,59.0,57.2,94,30.17,10.0,ESE,10.4,-,0.04,Rain,Light Rain,120,2013-01-10 09:55:00
4:15 AM,59.0,57.2,94,30.16,7.0,ESE,17.3,21.9,0.02,Rain,Light Rain,120,2013-01-10 10:15:00
4:35 AM,59.0,57.2,94,30.14,10.0,ESE,17.3,21.9,0.03,Rain,Light Rain,120,2013-01-10 10:35:00
4:55 AM,59.0,59.0,100,30.13,10.0,ESE,19.6,-,0.03,Rain,Light Rain,120,2013-01-10 10:55:00
5:35 AM,60.8,59.0,94,30.14,10.0,SE,16.1,-,0.01,Rain,Light Rain,130,2013-01-10 11:35:00
6:15 AM,60.8,59.0,94,30.16,7.0,SSE,18.4,23.0,0.03,Rain,Rain,160,2013-01-10 12:15:00
6:35 AM,60.8,59.0,94,30.16,7.0,SE,13.8,-,0.06,Rain,Light Rain,140,2013-01-10 12:35:00
6:55 AM,60.8,59.0,94,30.17,10.0,SE,15.0,-,0.07,,Light Drizzle,140,2013-01-10 12:55:00
7:35 AM,60.8,59.0,94,30.17,10.0,SE,18.4,-,0.01,,Drizzle,130,2013-01-10 13:35:00
8:15 AM,60.8,59.0,94,30.17,10.0,SE,16.1,-,N/A,Rain,Light Rain,130,2013-01-10 14:15:00
8:35 AM,60.8,59.0,94,30.16,10.0,ESE,13.8,-,N/A,Rain,Light Rain,120,2013-01-10 14:35:00
8:55 AM,60.8,59.0,94,30.17,10.0,SE,16.1,-,0.01,Rain,Light Rain,130,2013-01-10 14:55:00
9:15 AM,60.8,59.0,94,30.18,5.0,SE,12.7,-,0.03,Rain,Rain,130,2013-01-10 15:15:00
9:35 AM,60.8,59.0,94,30.17,10.0,ESE,13.8,-,0.03,Rain,Light Rain,120,2013-01-10 15:35:00
9:55 AM,60.8,60.8,100,30.16,10.0,ESE,12.7,-,0.03,,Light Drizzle,120,2013-01-10 15:55:00
10:15 AM,60.8,60.8,100,30.16,10.0,SE,10.4,-,0.01,Rain,Light Rain,130,2013-01-10 16:15:00
10:35 AM,60.8,60.8,100,30.16,4.0,SE,11.5,-,0.05,Rain,Light Rain,130,2013-01-10 16:35:00
10:55 AM,60.8,60.8,100,30.15,7.0,SE,10.4,-,0.07,Rain,Light Rain,130,2013-01-10 16:55:00
11:15 AM,60.8,60.8,100,30.16,5.0,SSW,8.1,-,0.01,Rain,Light Rain,210,2013-01-10 17:15:00
12:15 PM,60.8,60.8,100,30.10,4.0,SE,8.1,-,0.05,Rain,Heavy Rain,140,2013-01-10 18:15:00
12:35 PM,60.8,60.8,100,30.04,7.0,East,16.1,-,0.08,Rain,Rain,100,2013-01-10 18:35:00
12:55 PM,62.6,60.8,94,29.97,10.0,ESE,19.6,28.8,0.09,Rain,Light Rain,110,2013-01-10 18:55:00
1:15 PM,64.4,62.6,94,30.00,10.0,SE,21.9,32.2,N/A,,Mostly Cloudy,130,2013-01-10 19:15:00
1:35 PM,64.4,62.6,94,30.00,10.0,SE,21.9,28.8,N/A,,Overcast,130,2013-01-10 19:35:00
2:15 PM,64.4,60.8,88,29.98,10.0,SE,23.0,31.1,N/A,,Mostly Cloudy,130,2013-01-10 20:15:00
2:35 PM,64.4,60.8,88,29.99,10.0,SSW,13.8,27.6,N/A,,Light Drizzle,210,2013-01-10 20:35:00
2:55 PM,64.4,60.8,88,29.97,10.0,South,19.6,25.3,N/A,,Mostly Cloudy,170,2013-01-10 20:55:00
3:15 PM,66.2,60.8,83,29.94,10.0,SSW,18.4,28.8,N/A,,Mostly Cloudy,200,2013-01-10 21:15:00
3:35 PM,66.2,60.8,83,29.91,10.0,SE,21.9,31.1,N/A,,Scattered Clouds,130,2013-01-10 21:35:00
3:55 PM,68.0,60.8,78,29.93,10.0,SE,21.9,26.5,N/A,,Clear,140,2013-01-10 21:55:00
4:15 PM,66.2,60.8,83,29.93,10.0,SSE,19.6,24.2,N/A,,Scattered Clouds,150,2013-01-10 22:15:00
4:35 PM,64.4,60.8,88,29.93,10.0,SSE,16.1,26.5,N/A,,Overcast,150,2013-01-10 22:35:00
4:55 PM,64.4,60.8,88,29.91,10.0,SE,13.8,-,N/A,,Overcast,130,2013-01-10 22:55:00
5:15 PM,64.4,60.8,88,29.90,10.0,SE,16.1,23.0,N/A,,Overcast,140,2013-01-10 23:15:00
5:35 PM,64.4,60.8,88,29.91,10.0,SSE,18.4,-,N/A,,Mostly Cloudy,150,2013-01-10 23:35:00
5:55 PM,64.4,62.6,94,29.92,10.0,SSE,17.3,21.9,N/A,,Scattered Clouds,150,2013-01-10 23:55:00
6:15 PM,66.2,62.6,88,29.93,10.0,SSE,16.1,24.2,N/A,,Mostly Cloudy,160,2013-01-11 00:15:00
6:35 PM,66.2,62.6,88,29.93,10.0,South,19.6,25.3,N/A,,Overcast,170,2013-01-11 00:35:00
6:55 PM,66.2,60.8,83,29.95,10.0,South,18.4,35.7,N/A,Rain,Rain,190,2013-01-11 00:55:00
7:15 PM,66.2,60.8,83,29.95,10.0,South,21.9,28.8,N/A,,Overcast,190,2013-01-11 01:15:00
7:35 PM,64.4,60.8,88,29.97,7.0,South,17.3,28.8,N/A,Rain,Rain,190,2013-01-11 01:35:00
7:55 PM,64.4,60.8,88,29.98,7.0,South,19.6,27.6,N/A,Rain,Light Rain,190,2013-01-11 01:55:00
8:15 PM,64.4,60.8,88,29.99,10.0,South,18.4,25.3,N/A,,Overcast,190,2013-01-11 02:15:00
8:35 PM,62.6,60.8,94,29.99,10.0,SSW,16.1,26.5,N/A,,Overcast,200,2013-01-11 02:35:00
8:55 PM,62.6,60.8,94,29.98,10.0,SSW,12.7,-,N/A,,Overcast,200,2013-01-11 02:55:00
9:15 PM,62.6,60.8,94,29.98,10.0,SSW,9.2,-,N/A,,Overcast,210,2013-01-11 03:15:00
9:35 PM,62.6,60.8,94,29.98,7.0,SSW,10.4,-,0.01,Rain,Heavy Rain,210,2013-01-11 03:35:00
9:55 PM,62.6,60.8,94,29.98,7.0,SSW,9.2,-,0.03,Rain,Rain,200,2013-01-11 03:55:00
10:15 PM,62.6,60.8,94,29.97,5.0,South,9.2,-,0.03,Rain,Rain,190,2013-01-11 04:15:00
10:35 PM,62.6,60.8,94,29.97,7.0,South,11.5,-,0.04,,Overcast,190,2013-01-11 04:35:00
10:55 PM,62.6,60.8,94,29.98,3.0,SW,13.8,18.4,0.06,Rain,Heavy Rain,220,2013-01-11 04:55:00
11:15 PM,60.8,59.0,94,29.98,10.0,SW,12.7,-,N/A,,Overcast,220,2013-01-11 05:15:00
11:35 PM,60.8,59.0,94,29.98,10.0,SSW,11.5,-,N/A,,Overcast,210,2013-01-11 05:35:00
11:55 PM,60.8,59.0,94,29.98,10.0,SSW,10.4,17.3,N/A,,Overcast,210,2013-01-11 05:55:00